Location: Aufkirchen
(47.9603°N, 11.3653°E)
Time: 06:44:32
(UTC+01:00)

Transit 4A - Pass Details

Date: 29 November 2020
Orbit: 864 x 980 km, 66.8° (Epoch: 25 January)

Event Time Altitude Azimuth Distance (km) Brightness Sun altitude
Rises 08:50:22 0° 223° (SW) 3,626 11.0 8.2°
Reaches altitude 10° 08:52:54 10° 226° (SW) 2,696 10.4 8.5°
Maximum altitude 08:59:12 65° 309° (NW) 1,066 8.2 9.2°
Drops below altitude 10° 09:05:36 10° 31° (NNE) 2,741 10.2 9.9°
Sets 09:08:13 0° 35° (NE) 3,690 10.9 10.2°
